| time (UTC) | temp C | wind direction | speed KPH | gust KPH | rain 1hr cm | rain 24hr cm | rain mn cm | humidity % | barometer mb |
| 20260507072605 | 21 | 72 | 0.0 | 0.0 | 0.00 | 0.00 | 0.00 | 45 | 981.6 |
| 20260507072108 | 21 | 72 | 0.0 | 0.0 | 0.00 | 0.00 | 0.00 | 45 | 981.7 |
| 20260507071605 | 21 | 72 | 0.0 | 0.0 | 0.00 | 0.00 | 0.00 | 44 | 981.6 |
| 20260507071105 | 21 | 72 | 0.0 | 0.0 | 0.00 | 0.00 | 0.00 | 44 | 981.7 |
| 20260507070606 | 21 | 72 | 0.0 | 0.0 | 0.00 | 0.00 | 0.00 | 44 | 981.8 |
| 20260507070107 | 21 | 72 | 0.0 | 0.0 | 0.00 | 0.00 | 0.00 | 44 | 981.7 |
| 20260507065606 | 21 | 72 | 0.0 | 0.0 | 0.00 | 0.00 | 0.00 | 44 | 981.7 |
| 20260507065105 | 21 | 72 | 0.0 | 0.0 | 0.00 | 0.00 | 0.00 | 44 | 981.8 |
| 20260507064107 | 21 | 72 | 0.0 | 1.6 | 0.00 | 0.00 | 0.00 | 44 | 981.7 |
| 20260507063606 | 21 | 71 | 0.0 | 0.0 | 0.00 | 0.00 | 0.00 | 44 | 981.7 |
| 20260507063106 | 21 | 72 | 0.0 | 0.0 | 0.00 | 0.00 | 0.00 | 44 | 981.7 |
| 20260507062606 | 22 | 72 | 0.0 | 1.6 | 0.00 | 0.00 | 0.00 | 44 | 981.7 |
| 20260507062107 | 22 | 72 | 0.0 | 1.6 | 0.00 | 0.00 | 0.00 | 44 | 981.7 |
| 20260507061606 | 22 | 72 | 0.0 | 1.6 | 0.00 | 0.00 | 0.00 | 44 | 981.8 |
| 20260507061106 | 22 | 72 | 0.0 | 1.6 | 0.00 | 0.00 | 0.00 | 44 | 981.8 |
| 20260507060606 | 22 | 72 | 0.0 | 1.6 | 0.00 | 0.00 | 0.00 | 44 | 981.8 |
| 20260507060106 | 22 | 72 | 0.0 | 1.6 | 0.00 | 0.00 | 0.00 | 44 | 981.8 |
| 20260507055608 | 22 | 72 | 0.0 | 3.2 | 0.00 | 0.00 | 0.00 | 44 | 981.8 |
| 20260507055105 | 22 | 72 | 0.0 | 9.7 | 0.00 | 0.00 | 0.00 | 44 | 981.8 |
| 20260507054606 | 22 | 72 | 3.2 | 9.7 | 0.00 | 0.00 | 0.00 | 44 | 981.8 |
| 20260507054107 | 22 | 69 | 0.0 | 4.8 | 0.00 | 0.00 | 0.00 | 44 | 981.7 |
| 20260507053106 | 22 | 71 | 0.0 | 6.4 | 0.00 | 0.00 | 0.00 | 43 | 981.7 |
| 20260507052609 | 22 | 71 | 0.0 | 6.4 | 0.00 | 0.00 | 0.00 | 43 | 981.7 |
| 20260507052109 | 22 | 39 | 0.0 | 3.2 | 0.00 | 0.00 | 0.00 | 42 | 981.7 |
| 20260507051606 | 22 | 73 | 0.0 | 3.2 | 0.00 | 0.00 | 0.00 | 41 | 981.7 |
| 20260507051106 | 22 | 75 | 0.0 | 6.4 | 0.00 | 0.00 | 0.00 | 41 | 981.7 |
| 20260507050618 | 22 | 73 | 0.0 | 6.4 | 0.00 | 0.00 | 0.00 | 40 | 981.7 |
| 20260507050105 | 22 | 48 | 0.0 | 3.2 | 0.00 | 0.00 | 0.00 | 40 | 981.6 |
| 20260507045605 | 22 | 48 | 1.6 | 6.4 | 0.00 | 0.00 | 0.00 | 40 | 981.6 |
| 20260507045107 | 22 | 56 | 1.6 | 6.4 | 0.00 | 0.00 | 0.00 | 39 | 981.6 |
| 20260507044106 | 23 | 55 | 1.6 | 6.4 | 0.00 | 0.00 | 0.00 | 38 | 981.5 |
| 20260507043605 | 23 | 65 | 3.2 | 6.4 | 0.00 | 0.00 | 0.00 | 38 | 981.5 |
| 20260507043107 | 23 | 37 | 0.0 | 4.8 | 0.00 | 0.00 | 0.00 | 38 | 981.4 |
| 20260507042606 | 23 | 85 | 0.0 | 4.8 | 0.00 | 0.00 | 0.00 | 38 | 981.4 |
| 20260507042105 | 23 | 7 | 0.0 | 4.8 | 0.00 | 0.00 | 0.00 | 37 | 981.3 |
| 20260507041605 | 23 | 25 | 0.0 | 1.6 | 0.00 | 0.00 | 0.00 | 37 | 981.4 |
| 20260507041106 | 23 | 6 | 0.0 | 3.2 | 0.00 | 0.00 | 0.00 | 36 | 981.3 |
| 20260507040605 | 23 | 6 | 0.0 | 4.8 | 0.00 | 0.00 | 0.00 | 36 | 981.3 |
| 20260507040106 | 23 | 54 | 0.0 | 9.7 | 0.00 | 0.00 | 0.00 | 36 | 981.3 |
| 20260507035605 | 23 | 45 | 3.2 | 9.7 | 0.00 | 0.00 | 0.00 | 36 | 981.3 |
| 20260507034605 | 23 | 8 | 3.2 | 16.1 | 0.00 | 0.00 | 0.00 | 36 | 981.1 |
| 20260507034106 | 23 | 20 | 8.0 | 16.1 | 0.00 | 0.00 | 0.00 | 36 | 981.1 |
| 20260507033605 | 24 | 56 | 4.8 | 14.5 | 0.00 | 0.00 | 0.00 | 35 | 981.2 |
| 20260507033101 | 24 | 48 | 3.2 | 14.5 | 0.00 | 0.00 | 0.00 | 35 | 981.0 |
| 20260507032555 | 24 | 11 | 1.6 | 14.5 | 0.00 | 0.00 | 0.00 | 35 | 981.0 |
| 20260507032056 | 24 | 45 | 3.2 | 9.7 | 0.00 | 0.00 | 0.00 | 33 | 980.9 |
| 20260507031551 | 24 | 44 | 1.6 | 14.5 | 0.00 | 0.00 | 0.00 | 33 | 980.9 |
| 20260507030544 | 25 | 23 | 4.8 | 17.7 | 0.00 | 0.00 | 0.00 | 33 | 980.7 |
| 20260507030043 | -17 | 0.0 | 0.0 | 0.00 | 0.00 | 0.00 | 980.7 | ||
| 20260507025542 | 25 | 6 | 3.2 | 8.0 | 0.00 | 0.00 | 0.00 | 32 | 980.7 |
| 20260507025035 | 25 | 6 | 3.2 | 19.3 | 0.00 | 0.00 | 0.00 | 32 | 980.7 |
| 20260507024537 | 25 | 358 | 3.2 | 19.3 | 0.00 | 0.00 | 0.00 | 32 | 980.7 |
| 20260507023536 | 25 | 357 | 3.2 | 19.3 | 0.00 | 0.00 | 0.00 | 32 | 980.5 |
| 20260507023035 | 25 | 354 | 4.8 | 17.7 | 0.00 | 0.00 | 0.00 | 32 | 980.4 |
| 20260507021536 | 26 | 353 | 4.8 | 22.5 | 0.00 | 0.00 | 0.00 | 32 | 980.2 |
| 20260507020034 | 26 | 351 | 3.2 | 22.5 | 0.00 | 0.00 | 0.00 | 32 | 979.9 |
| 20260507015536 | 26 | 357 | 6.4 | 22.5 | 0.00 | 0.00 | 0.00 | 31 | 979.9 |
| 20260507015036 | 27 | 353 | 3.2 | 16.1 | 0.00 | 0.00 | 0.00 | 30 | 979.9 |
| 20260507014034 | 27 | 6 | 1.6 | 14.5 | 0.00 | 0.00 | 0.00 | 28 | 979.9 |
| 20260507013538 | 27 | 14 | 6.4 | 14.5 | 0.00 | 0.00 | 0.00 | 27 | 979.8 |
| 20260507012536 | 28 | 334 | 11.3 | 17.7 | 0.00 | 0.00 | 0.00 | 25 | 979.7 |
| 20260507012035 | 28 | 4 | 6.4 | 17.7 | 0.00 | 0.00 | 0.00 | 25 | 979.7 |
| 20260507010538 | 28 | 7 | 0.0 | 16.1 | 0.00 | 0.00 | 0.00 | 17 | 979.6 |
| 20260507010036 | 28 | 0 | 1.6 | 6.4 | 0.00 | 0.00 | 0.00 | 17 | 979.6 |
| 20260507005536 | 28 | 0 | 1.6 | 6.4 | 0.00 | 0.00 | 0.00 | 16 | 979.6 |
| 20260507005035 | 28 | 47 | 3.2 | 9.7 | 0.00 | 0.00 | 0.00 | 16 | 979.5 |
| 20260507004536 | 28 | 11 | 1.6 | 9.7 | 0.00 | 0.00 | 0.00 | 16 | 979.5 |
| 20260507004035 | 28 | 334 | 3.2 | 9.7 | 0.00 | 0.00 | 0.00 | 16 | 979.6 |
| 20260507003537 | 28 | 334 | 3.2 | 14.5 | 0.00 | 0.00 | 0.00 | 16 | 979.6 |
| 20260507003035 | 28 | 341 | 4.8 | 14.5 | 0.00 | 0.00 | 0.00 | 16 | 979.5 |
| 20260507002036 | 29 | 351 | 1.6 | 4.8 | 0.00 | 0.00 | 0.00 | 15 | 979.5 |
| 20260507000035 | 29 | 340 | 0.0 | 16.1 | 0.00 | 0.00 | 0.00 | 15 | 979.4 |
| 20260506235535 | 29 | 357 | 4.8 | 16.1 | 0.00 | 0.00 | 0.00 | 15 | 979.4 |
| 20260506235035 | 29 | 13 | 0.0 | 8.0 | 0.00 | 0.00 | 0.00 | 15 | 979.4 |
| 20260506234034 | 29 | 347 | 3.2 | 11.3 | 0.00 | 0.00 | 0.00 | 15 | 979.5 |
| 20260506233035 | 29 | 330 | 0.0 | 9.7 | 0.00 | 0.00 | 0.00 | 14 | 979.5 |
| 20260506232535 | 29 | 330 | 0.0 | 11.3 | 0.00 | 0.00 | 0.00 | 14 | 979.5 |
| 20260506232036 | 29 | 23 | 1.6 | 11.3 | 0.00 | 0.00 | 0.00 | 15 | 979.5 |
| 20260506231536 | 29 | 324 | 4.8 | 8.0 | 0.00 | 0.00 | 0.00 | 15 | 979.5 |
| 20260506231034 | 30 | 351 | 1.6 | 4.8 | 0.00 | 0.00 | 0.00 | 14 | 979.5 |
| 20260506230549 | 30 | 338 | 0.0 | 8.0 | 0.00 | 0.00 | 0.00 | 14 | 979.5 |
| 20260506230035 | 29 | 337 | 1.6 | 17.7 | 0.00 | 0.00 | 0.00 | 14 | 979.7 |
| 20260506225035 | 29 | 357 | 3.2 | 14.5 | 0.00 | 0.00 | 0.00 | 15 | 979.7 |
| 20260506224034 | 29 | 345 | 0.0 | 14.5 | 0.00 | 0.00 | 0.00 | 15 | 979.6 |
| 20260506223043 | 29 | 330 | 0.0 | 9.7 | 0.00 | 0.00 | 0.00 | 15 | 979.7 |
| 20260506222521 | 29 | 321 | 3.2 | 22.5 | 0.00 | 0.00 | 0.00 | 16 | 979.9 |
| 20260506222023 | 29 | 329 | 14.5 | 22.5 | 0.00 | 0.00 | 0.00 | 15 | 979.8 |
| 20260506221008 | 30 | 334 | 4.8 | 9.7 | 0.00 | 0.00 | 0.00 | 15 | 979.9 |
| 20260506220509 | 29 | 323 | 1.6 | 8.0 | 0.00 | 0.00 | 0.00 | 16 | 979.9 |
| 20260506220009 | 29 | 47 | 3.2 | 9.7 | 0.00 | 0.00 | 0.00 | 16 | 979.9 |
| 20260506215509 | 29 | 0 | 3.2 | 9.7 | 0.00 | 0.00 | 0.00 | 16 | 979.9 |
| 20260506215008 | 29 | 326 | 3.2 | 9.7 | 0.00 | 0.00 | 0.00 | 15 | 980.0 |
| 20260506214508 | 29 | 321 | 3.2 | 9.7 | 0.00 | 0.00 | 0.00 | 15 | 980.0 |
| 20260506213515 | 29 | 307 | 3.2 | 8.0 | 0.00 | 0.00 | 0.00 | 16 | 980.1 |
| 20260506213011 | -17 | 353 | 4.8 | 0.0 | 0.00 | 0.00 | 0.00 | 980.2 | |
| 20260506212506 | -17 | 0.0 | 0.0 | 0.00 | 0.00 | 0.00 | 980.3 | ||
| 20260506211756 | 28 | 355 | 4.8 | 0.0 | 0.00 | 0.00 | 0.00 | 15 | 980.5 |
| 20260506211246 | -17 | 0.0 | 0.0 | 0.00 | 0.00 | 0.00 | 980.4 | ||
| 20260506210458 | 28 | 330 | 0.0 | 9.7 | 0.00 | 0.00 | 0.00 | 15 | 980.6 |
| 20260506205955 | 28 | 343 | 0.0 | 4.8 | 0.00 | 0.00 | 0.00 | 15 | 980.6 |
| 20260506205458 | -17 | 0.0 | 0.0 | 0.00 | 0.00 | 0.00 | 980.7 | ||
| 20260506204832 | 28 | 324 | 1.6 | 16.1 | 0.00 | 0.00 | 0.00 | 16 | 980.8 |
| 20260506204333 | 28 | 326 | 6.4 | 16.1 | 0.00 | 0.00 | 0.00 | 17 | 980.8 |
| 20260506203833 | 28 | 0 | 0.0 | 3.2 | 0.00 | 0.00 | 0.00 | 17 | 980.8 |
| 20260506203337 | 28 | 0 | 0.0 | 4.8 | 0.00 | 0.00 | 0.00 | 17 | 980.9 |
| 20260506202832 | 28 | 0 | 0.0 | 4.8 | 0.00 | 0.00 | 0.00 | 17 | 981.0 |
| 20260506201832 | 27 | 334 | 0.0 | 8.0 | 0.00 | 0.00 | 0.00 | 18 | 981.2 |
| 20260506201332 | 27 | 23 | 0.0 | 9.7 | 0.00 | 0.00 | 0.00 | 18 | 981.2 |
| 20260506200836 | 27 | 330 | 1.6 | 9.7 | 0.00 | 0.00 | 0.00 | 19 | 981.2 |
| 20260506200335 | 27 | 306 | 0.0 | 9.7 | 0.00 | 0.00 | 0.00 | 19 | 981.3 |
| 20260506195836 | 27 | 0 | 3.2 | 9.7 | 0.00 | 0.00 | 0.00 | 20 | 981.4 |
| 20260506195335 | 27 | 65 | 0.0 | 4.8 | 0.00 | 0.00 | 0.00 | 20 | 981.4 |
| 20260506194835 | 27 | 65 | 0.0 | 8.0 | 0.00 | 0.00 | 0.00 | 20 | 981.5 |
| 20260506193836 | 27 | 350 | 0.0 | 4.8 | 0.00 | 0.00 | 0.00 | 20 | 981.5 |
| 20260506193336 | 27 | 355 | 0.0 | 1.6 | 0.00 | 0.00 | 0.00 | 20 | 981.6 |
| 20260506192335 | 26 | 355 | 0.0 | 8.0 | 0.00 | 0.00 | 0.00 | 21 | 981.9 |
| 20260506191837 | 27 | 337 | 3.2 | 8.0 | 0.00 | 0.00 | 0.00 | 21 | 981.9 |
| 20260506191336 | 26 | 353 | 1.6 | 4.8 | 0.00 | 0.00 | 0.00 | 21 | 981.9 |
| 20260506190835 | 26 | 341 | 0.0 | 1.6 | 0.00 | 0.00 | 0.00 | 21 | 981.9 |
| 20260506185835 | 26 | 341 | 0.0 | 9.7 | 0.00 | 0.00 | 0.00 | 21 | 982.1 |
| 20260506185334 | 26 | 341 | 3.2 | 9.7 | 0.00 | 0.00 | 0.00 | 21 | 982.1 |
| 20260506184834 | 26 | 336 | 0.0 | 1.6 | 0.00 | 0.00 | 0.00 | 23 | 982.1 |
| 20260506184336 | 26 | 8 | 0.0 | 1.6 | 0.00 | 0.00 | 0.00 | 23 | 982.2 |
| 20260506183335 | 26 | 8 | 0.0 | 1.6 | 0.00 | 0.00 | 0.00 | 24 | 982.3 |
| 20260506182335 | 25 | 13 | 0.0 | 3.2 | 0.00 | 0.00 | 0.00 | 24 | 982.3 |
| 20260506181836 | 25 | 8 | 1.6 | 3.2 | 0.00 | 0.00 | 0.00 | 24 | 982.4 |
| 20260506181335 | 26 | 157 | 0.0 | 1.6 | 0.00 | 0.00 | 0.00 | 24 | 982.4 |
| 20260506180836 | 25 | 240 | 0.0 | 1.6 | 0.00 | 0.00 | 0.00 | 25 | 982.4 |
| 20260506180335 | 25 | 234 | 0.0 | 0.0 | 0.00 | 0.00 | 0.00 | 24 | 982.5 |
| 20260506175834 | 25 | 235 | 0.0 | 0.0 | 0.00 | 0.00 | 0.00 | 25 | 982.6 |
| 20260506175335 | 25 | 0 | 0.0 | 0.0 | 0.00 | 0.00 | 0.00 | 25 | 982.7 |
| 20260506174835 | 25 | 0 | 0.0 | 3.2 | 0.00 | 0.00 | 0.00 | 26 | 982.6 |
| 20260506173835 | 24 | 0 | 0.0 | 3.2 | 0.00 | 0.00 | 0.00 | 27 | 982.6 |
| 20260506173335 | 24 | 3 | 0.0 | 3.2 | 0.00 | 0.00 | 0.00 | 27 | 982.7 |
| 20260506172834 | 24 | 3 | 0.0 | 3.2 | 0.00 | 0.00 | 0.00 | 27 | 982.6 |
| 20260506172335 | 24 | 0 | 0.0 | 1.6 | 0.00 | 0.00 | 0.00 | 27 | 982.6 |
| 20260506171835 | 25 | 0 | 0.0 | 1.6 | 0.00 | 0.00 | 0.00 | 27 | 982.5 |
| 20260506170837 | 24 | 0 | 0.0 | 3.2 | 0.00 | 0.00 | 0.00 | 28 | 982.6 |
| 20260506170336 | 23 | 355 | 0.0 | 1.6 | 0.00 | 0.00 | 0.00 | 29 | 982.5 |
| 20260506165836 | 23 | 355 | 0.0 | 1.6 | 0.00 | 0.00 | 0.00 | 28 | 982.6 |
| 20260506164834 | 23 | 355 | 0.0 | 0.0 | 0.00 | 0.00 | 0.00 | 30 | 982.6 |
| 20260506164334 | 23 | 355 | 0.0 | 0.0 | 0.00 | 0.00 | 0.00 | 30 | 982.6 |
| 20260506163834 | 23 | 355 | 0.0 | 1.6 | 0.00 | 0.00 | 0.00 | 30 | 982.6 |
| 20260506163335 | 23 | 355 | 0.0 | 1.6 | 0.00 | 0.00 | 0.00 | 31 | 982.6 |
| 20260506162835 | 23 | 355 | 0.0 | 1.6 | 0.00 | 0.00 | 0.00 | 31 | 982.5 |
| 20260506162336 | 23 | 355 | 0.0 | 0.0 | 0.00 | 0.00 | 0.00 | 32 | 982.5 |
| 20260506161836 | 22 | 355 | 0.0 | 0.0 | 0.00 | 0.00 | 0.00 | 33 | 982.5 |
| 20260506161334 | 22 | 355 | 0.0 | 0.0 | 0.00 | 0.00 | 0.00 | 33 | 982.4 |
| 20260506160835 | 22 | 355 | 0.0 | 0.0 | 0.00 | 0.00 | 0.00 | 34 | 982.4 |
| 20260506160348 | 22 | 355 | 0.0 | 0.0 | 0.00 | 0.00 | 0.00 | 34 | 982.4 |
| 20260506155834 | 22 | 355 | 0.0 | 0.0 | 0.00 | 0.00 | 0.00 | 36 | 982.4 |
| 20260506155336 | 21 | 355 | 0.0 | 0.0 | 0.00 | 0.00 | 0.00 | 36 | 982.3 |
| 20260506154836 | 21 | 355 | 0.0 | 0.0 | 0.00 | 0.00 | 0.00 | 36 | 982.5 |
| 20260506153834 | 21 | 355 | 0.0 | 0.0 | 0.00 | 0.00 | 0.00 | 37 | 982.5 |
| 20260506153335 | 21 | 355 | 0.0 | 0.0 | 0.00 | 0.00 | 0.00 | 38 | 982.5 |
| 20260506152335 | 20 | 355 | 0.0 | 0.0 | 0.00 | 0.00 | 0.00 | 39 | 982.6 |
| 20260506151835 | 20 | 355 | 0.0 | 0.0 | 0.00 | 0.00 | 0.00 | 41 | 982.6 |
| 20260506151336 | 20 | 355 | 0.0 | 1.6 | 0.00 | 0.00 | 0.00 | 41 | 982.6 |
| 20260506150835 | 20 | 355 | 0.0 | 1.6 | 0.00 | 0.00 | 0.00 | 41 | 982.6 |
| 20260506150335 | 20 | 44 | 0.0 | 1.6 | 0.00 | 0.00 | 0.00 | 41 | 982.6 |
| 20260506145337 | 19 | 44 | 0.0 | 0.0 | 0.00 | 0.00 | 0.00 | 43 | 982.7 |
| 20260506144336 | 19 | 44 | 0.0 | 0.0 | 0.00 | 0.00 | 0.00 | 43 | 982.5 |
| 20260506143835 | 19 | 44 | 0.0 | 0.0 | 0.00 | 0.00 | 0.00 | 43 | 982.5 |
| 20260506143337 | 19 | 44 | 0.0 | 0.0 | 0.00 | 0.00 | 0.00 | 43 | 982.5 |
| 20260506142836 | 19 | 45 | 0.0 | 0.0 | 0.00 | 0.00 | 0.00 | 43 | 982.6 |
| 20260506142335 | 19 | 44 | 0.0 | 0.0 | 0.00 | 0.00 | 0.00 | 44 | 982.6 |
| 20260506141836 | 18 | 44 | 0.0 | 0.0 | 0.00 | 0.00 | 0.00 | 43 | 982.5 |
| 20260506141336 | 18 | 44 | 0.0 | 0.0 | 0.00 | 0.00 | 0.00 | 44 | 982.6 |
| 20260506140336 | 18 | 44 | 0.0 | 0.0 | 0.00 | 0.00 | 0.00 | 44 | 982.5 |
| 20260506135834 | 18 | 45 | 0.0 | 0.0 | 0.00 | 0.00 | 0.00 | 45 | 982.5 |
| 20260506135336 | 18 | 45 | 0.0 | 0.0 | 0.00 | 0.00 | 0.00 | 45 | 982.4 |
| 20260506134835 | 18 | 45 | 0.0 | 0.0 | 0.00 | 0.00 | 0.00 | 45 | 982.4 |
| 20260506134335 | 17 | 44 | 0.0 | 0.0 | 0.00 | 0.00 | 0.00 | 46 | 982.4 |
| 20260506133847 | 17 | 45 | 0.0 | 0.0 | 0.00 | 0.00 | 0.00 | 46 | 982.4 |
| 20260506132841 | 17 | 44 | 0.0 | 0.0 | 0.00 | 0.00 | 0.00 | 46 | 982.4 |
| 20260506132338 | 17 | 44 | 0.0 | 0.0 | 0.00 | 0.00 | 0.00 | 47 | 982.3 |
| 20260506131838 | 17 | 45 | 0.0 | 0.0 | 0.00 | 0.00 | 0.00 | 46 | 982.2 |
| 20260506131336 | 17 | 44 | 0.0 | 0.0 | 0.00 | 0.00 | 0.00 | 47 | 982.2 |
| 20260506130836 | 17 | 44 | 0.0 | 0.0 | 0.00 | 0.00 | 0.00 | 47 | 982.1 |
| 20260506130336 | 17 | 44 | 0.0 | 0.0 | 0.00 | 0.00 | 0.00 | 47 | 982.1 |
| 20260506125336 | 17 | 45 | 0.0 | 0.0 | 0.00 | 0.00 | 0.00 | 47 | 982.0 |
| 20260506124836 | 17 | 89 | 0.0 | 0.0 | 0.00 | 0.00 | 0.00 | 46 | 981.9 |
| 20260506124336 | 17 | 89 | 0.0 | 0.0 | 0.00 | 0.00 | 0.00 | 45 | 981.8 |
| 20260506123835 | 17 | 89 | 0.0 | 0.0 | 0.00 | 0.00 | 0.00 | 42 | 981.8 |
| 20260506123334 | -17 | 0.0 | 0.0 | 0.00 | 0.00 | 0.00 | 981.7 | ||
| 20260506122836 | 17 | 89 | 0.0 | 0.0 | 0.00 | 0.00 | 0.00 | 41 | 981.7 |
| 20260506122335 | 17 | 89 | 0.0 | 0.0 | 0.00 | 0.00 | 0.00 | 41 | 981.6 |
| 20260506121836 | 17 | 89 | 0.0 | 0.0 | 0.00 | 0.00 | 0.00 | 41 | 981.6 |
| 20260506121335 | 17 | 89 | 0.0 | 0.0 | 0.00 | 0.00 | 0.00 | 43 | 981.6 |
| 20260506120835 | 17 | 89 | 0.0 | 0.0 | 0.00 | 0.00 | 0.00 | 43 | 981.6 |
| 20260506120336 | 17 | 89 | 0.0 | 0.0 | 0.00 | 0.00 | 0.00 | 43 | 981.5 |
| 20260506115834 | 17 | 89 | 0.0 | 0.0 | 0.00 | 0.00 | 0.00 | 42 | 981.5 |
| 20260506115336 | 17 | 89 | 0.0 | 0.0 | 0.00 | 0.00 | 0.00 | 41 | 981.5 |
| 20260506114835 | 17 | 89 | 0.0 | 0.0 | 0.00 | 0.00 | 0.00 | 41 | 981.5 |
| 20260506114335 | 17 | 89 | 0.0 | 0.0 | 0.00 | 0.00 | 0.00 | 41 | 981.4 |
| 20260506113836 | 17 | 89 | 0.0 | 0.0 | 0.00 | 0.00 | 0.00 | 41 | 981.4 |
| 20260506113335 | 17 | 89 | 0.0 | 0.0 | 0.00 | 0.00 | 0.00 | 41 | 981.4 |
| 20260506112324 | 17 | 89 | 0.0 | 0.0 | 0.00 | 0.00 | 0.00 | 43 | 981.4 |
| 20260506111817 | 17 | 89 | 0.0 | 0.0 | 0.00 | 0.00 | 0.00 | 44 | 981.4 |
| 20260506111330 | 17 | 89 | 0.0 | 0.0 | 0.00 | 0.00 | 0.00 | 44 | 981.5 |
| 20260506110814 | 17 | 89 | 0.0 | 0.0 | 0.00 | 0.00 | 0.00 | 43 | 981.5 |
| 20260506110309 | 18 | 89 | 0.0 | 0.0 | 0.00 | 0.00 | 0.00 | 42 | 981.5 |
| 20260506105810 | 18 | 89 | 0.0 | 0.0 | 0.00 | 0.00 | 0.00 | 42 | 981.5 |
| 20260506105305 | 18 | 89 | 0.0 | 0.0 | 0.00 | 0.00 | 0.00 | 42 | 981.5 |
| 20260506104809 | 18 | 89 | 0.0 | 0.0 | 0.00 | 0.00 | 0.00 | 43 | 981.4 |
| 20260506104307 | 18 | 89 | 0.0 | 0.0 | 0.00 | 0.00 | 0.00 | 43 | 981.4 |
| 20260506103808 | 18 | 89 | 0.0 | 0.0 | 0.00 | 0.00 | 0.00 | 43 | 981.4 |
| 20260506103308 | 18 | 89 | 0.0 | 0.0 | 0.00 | 0.00 | 0.00 | 42 | 981.3 |
| 20260506102808 | 18 | 89 | 0.0 | 0.0 | 0.00 | 0.00 | 0.00 | 42 | 981.3 |
| 20260506102308 | 18 | 89 | 0.0 | 0.0 | 0.00 | 0.00 | 0.00 | 42 | 981.4 |
| 20260506101807 | 18 | 89 | 0.0 | 0.0 | 0.00 | 0.00 | 0.00 | 41 | 981.3 |
| 20260506101308 | 18 | 89 | 0.0 | 0.0 | 0.00 | 0.00 | 0.00 | 42 | 981.3 |
| 20260506100808 | 18 | 89 | 0.0 | 0.0 | 0.00 | 0.00 | 0.00 | 42 | 981.3 |
| 20260506100308 | 18 | 89 | 0.0 | 0.0 | 0.00 | 0.00 | 0.00 | 43 | 981.3 |
| 20260506095307 | 18 | 89 | 0.0 | 0.0 | 0.00 | 0.00 | 0.00 | 42 | 981.3 |
| 20260506094807 | 18 | 89 | 0.0 | 0.0 | 0.00 | 0.00 | 0.00 | 42 | 981.3 |
| 20260506094308 | 18 | 89 | 0.0 | 0.0 | 0.00 | 0.00 | 0.00 | 41 | 981.2 |
| 20260506093808 | 18 | 89 | 0.0 | 0.0 | 0.00 | 0.00 | 0.00 | 41 | 981.4 |
| 20260506093306 | 18 | 89 | 0.0 | 0.0 | 0.00 | 0.00 | 0.00 | 41 | 981.3 |
| 20260506092807 | 18 | 89 | 0.0 | 0.0 | 0.00 | 0.00 | 0.00 | 41 | 981.3 |
| 20260506091807 | 18 | 89 | 0.0 | 0.0 | 0.00 | 0.00 | 0.00 | 41 | 981.2 |
| 20260506091308 | 19 | 89 | 0.0 | 0.0 | 0.00 | 0.00 | 0.00 | 40 | 981.2 |
| 20260506090806 | 19 | 89 | 0.0 | 0.0 | 0.00 | 0.00 | 0.00 | 40 | 981.3 |
| 20260506090308 | 19 | 89 | 0.0 | 0.0 | 0.00 | 0.00 | 0.00 | 40 | 981.3 |
| 20260506085808 | 19 | 89 | 0.0 | 0.0 | 0.00 | 0.00 | 0.00 | 40 | 981.4 |
| 20260506085307 | 19 | 89 | 0.0 | 0.0 | 0.00 | 0.00 | 0.00 | 40 | 981.4 |
| 20260506084808 | 19 | 89 | 0.0 | 0.0 | 0.00 | 0.00 | 0.00 | 40 | 981.4 |
| 20260506084307 | 19 | 89 | 0.0 | 0.0 | 0.00 | 0.00 | 0.00 | 39 | 981.4 |
| 20260506083808 | 19 | 89 | 0.0 | 0.0 | 0.00 | 0.00 | 0.00 | 39 | 981.5 |
| 20260506083307 | 19 | 89 | 0.0 | 0.0 | 0.00 | 0.00 | 0.00 | 39 | 981.4 |
| 20260506082807 | 19 | 89 | 0.0 | 0.0 | 0.00 | 0.00 | 0.00 | 39 | 981.4 |
| 20260506082307 | 19 | 89 | 0.0 | 0.0 | 0.00 | 0.00 | 0.00 | 38 | 981.5 |
| 20260506081807 | 19 | 89 | 0.0 | 0.0 | 0.00 | 0.00 | 0.00 | 38 | 981.6 |
| 20260506081307 | 20 | 89 | 0.0 | 0.0 | 0.00 | 0.00 | 0.00 | 38 | 981.6 |
| 20260506073319 | 20 | 89 | 0.0 | 0.0 | 0.00 | 0.00 | 0.00 | 39 | 981.8 |